When you browse on this site, cookies collect data to enhance your experience and personalize the content and advertising you see.
Visit our Privacy Policy to learn more. By continuing to use the site, you agree to this use of cookies and data.
  • In Latvia
  • List of Countries
  • For 7 days
  • Water Temperature
  • Satellite Maps
  • Weather Map
  • Weather Widgets
  • user-avatar
    Login

    Hourly Weather Bekobod

    Today, 20 January, Sunday

    Time Temperature Precipitation Wind Pressure Humidity
    00:00 +5°C° 0 mm 2 mps 733 mmHg 85%
    01:00 +4°C° 0 mm 3 mps 733 mmHg 88%
    02:00 +4°C° 0 mm 3 mps 733 mmHg 91%
    03:00 +3°C° 0 mm 3 mps 733 mmHg 91%
    04:00 +4°C° 0 mm 2 mps 733 mmHg 92%
    05:00 +4°C° 0 mm 2 mps 732 mmHg 90%
    06:00 +4°C° 0 mm 2 mps 732 mmHg 91%
    07:00 +4°C° 0 mm 2 mps 732 mmHg 91%
    08:00 +3°C° 0 mm 3 mps 732 mmHg 92%
    09:00 +3°C° 0.1 mm 3 mps 733 mmHg 90%
    10:00 +3°C° 0.1 mm 4 mps 733 mmHg 88%
    11:00 +3°C° 0 mm 4 mps 734 mmHg 87%
    12:00 +3°C° 1 mm 4 mps 734 mmHg 87%
    13:00 +3°C° 1 mm 4 mps 734 mmHg 88%
    14:00 +3°C° 1 mm 4 mps 735 mmHg 88%
    15:00 +1°C° 0.7 mm 4 mps 735 mmHg 89%
    16:00 +1°C° 0.7 mm 5 mps 736 mmHg 89%
    17:00 +1°C° 0 mm 4 mps 736 mmHg 90%
    18:00 +1°C° 0.5 mm 4 mps 737 mmHg 88%
    19:00 +2°C° 0.5 mm 3 mps 737 mmHg 87%
    20:00 +1°C° 0.5 mm 3 mps 738 mmHg 86%
    21:00 +1°C° 0.3 mm 3 mps 739 mmHg 87%
    22:00 +1°C° 0.3 mm 3 mps 740 mmHg 88%
    23:00 +1°C° 0.3 mm 2 mps 740 mmHg 89%

    Tomorrow, 21 January, Monday

    Time Temperature Precipitation Wind Pressure Humidity
    00:00 +1°C° 0.2 mm 2 mps 741 mmHg 89%
    01:00 +1°C° 0.2 mm 2 mps 742 mmHg 90%
    02:00 +1°C° 0.2 mm 2 mps 742 mmHg 90%
    03:00 +1°C° 0.1 mm 2 mps 743 mmHg 90%
    04:00 +1°C° 0.1 mm 2 mps 744 mmHg 90%
    05:00 +1°C° 0.1 mm 2 mps 744 mmHg 90%
    06:00 +1°C° 0 mm 2 mps 745 mmHg 89%
    07:00 +1°C° 0 mm 2 mps 745 mmHg 89%
    08:00 -1°C° 0 mm 2 mps 746 mmHg 88%
    09:00 +1°C° 0 mm 2 mps 745 mmHg 86%
    10:00 +2°C° 0 mm 2 mps 745 mmHg 83%
    11:00 +3°C° 0 mm 2 mps 745 mmHg 81%
    12:00 +4°C° 0 mm 1 mps 745 mmHg 78%
    13:00 +5°C° 0 mm 1 mps 744 mmHg 75%
    14:00 +5°C° 0 mm 1 mps 743 mmHg 73%
    15:00 +5°C° 0 mm 1 mps 743 mmHg 74%
    16:00 +5°C° 0 mm 1 mps 743 mmHg 75%
    17:00 +4°C° 0 mm 1 mps 743 mmHg 76%
    18:00 +4°C° 0 mm 1 mps 743 mmHg 77%
    19:00 +3°C° 0 mm 1 mps 743 mmHg 79%
    20:00 +1°C° 0 mm 0 mps 743 mmHg 80%
    21:00 +2°C° 0 mm 1 mps 743 mmHg 80%
    22:00 +2°C° 0 mm 1 mps 743 mmHg 79%
    23:00 +2°C° 0 mm 1 mps 742 mmHg 79%

    Day after tomorrow, 22 January, Tuesday

    Time Temperature Precipitation Wind Pressure Humidity
    00:00 +1°C° 0 mm 1 mps 742 mmHg 80%
    01:00 +1°C° 0 mm 1 mps 741 mmHg 81%
    02:00 +1°C° 0 mm 1 mps 741 mmHg 81%
    03:00 0°C° 0 mm 0 mps 740 mmHg 82%
    04:00 -1°C° 0 mm 0 mps 740 mmHg 83%
    05:00 -1°C° 0 mm 0 mps 739 mmHg 83%
    06:00 -1°C° 0 mm 0 mps 739 mmHg 83%
    07:00 -1°C° 0 mm 0 mps 739 mmHg 83%
    08:00 -1°C° 0 mm 0 mps 739 mmHg 83%
    09:00 +1°C° 0 mm 1 mps 739 mmHg 80%
    10:00 +2°C° 0 mm 1 mps 739 mmHg 76%
    11:00 +3°C° 0 mm 1 mps 738 mmHg 73%
    12:00 +4°C° 0 mm 1 mps 738 mmHg 73%
    13:00 +4°C° 0 mm 1 mps 737 mmHg 72%
    14:00 +5°C° 0 mm 1 mps 737 mmHg 72%
    15:00 +5°C° 0 mm 1 mps 737 mmHg 74%
    16:00 +4°C° 0 mm 1 mps 737 mmHg 76%
    17:00 +4°C° 0 mm 1 mps 737 mmHg 78%
    18:00 +3°C° 0 mm 1 mps 738 mmHg 80%
    19:00 +3°C° 0 mm 1 mps 738 mmHg 81%
    20:00 +2°C° 0 mm 1 mps 739 mmHg 83%
    21:00 +2°C° 0 mm 1 mps 739 mmHg 83%
    22:00 +2°C° 0 mm 1 mps 739 mmHg 83%
    23:00 +1°C° 0 mm 0 mps 739 mmHg 82%

    23 January, Wednesday

    Time Temperature Precipitation Wind Pressure Humidity
    00:00 +1°C° 0 mm 0 mps 739 mmHg 81%
    01:00 +1°C° 0 mm 0 mps 739 mmHg 79%
    02:00 +1°C° 0 mm 0 mps 739 mmHg 78%
    03:00 +1°C° 0 mm 0 mps 739 mmHg 75%
    04:00 +2°C° 0 mm 1 mps 739 mmHg 73%
    05:00 +2°C° 0 mm 1 mps 739 mmHg 71%
    06:00 +2°C° 0 mm 1 mps 739 mmHg 68%
    07:00 +2°C° 0 mm 1 mps 740 mmHg 65%
    08:00 +2°C° 0 mm 1 mps 740 mmHg 62%
    09:00 +4°C° 0 mm 1 mps 740 mmHg 59%
    10:00 +5°C° 0 mm 1 mps 740 mmHg 55%
    11:00 +6°C° 0 mm 2 mps 740 mmHg 52%
    12:00 +6°C° 0 mm 2 mps 740 mmHg 50%
    13:00 +7°C° 0 mm 2 mps 740 mmHg 49%
    14:00 +7°C° 0 mm 2 mps 740 mmHg 47%
    15:00 +7°C° 0 mm 2 mps 740 mmHg 49%
    16:00 +7°C° 0 mm 1 mps 740 mmHg 51%
    17:00 +7°C° 0 mm 1 mps 741 mmHg 52%
    18:00 +6°C° 0 mm 1 mps 741 mmHg 54%
    19:00 +6°C° 0 mm 1 mps 742 mmHg 55%
    20:00 +5°C° 0 mm 1 mps 743 mmHg 56%
    21:00 +4°C° 0 mm 2 mps 743 mmHg 56%
    22:00 +4°C° 0 mm 2 mps 743 mmHg 57%
    23:00 +4°C° 0 mm 2 mps 743 mmHg 57%

    24 January, Thursday

    Time Temperature Precipitation Wind Pressure Humidity
    00:00 +4°C° 0 mm 2 mps 743 mmHg 57%
    01:00 +3°C° 0 mm 2 mps 743 mmHg 57%
    02:00 +3°C° 0 mm 2 mps 744 mmHg 57%
    03:00 +3°C° 0 mm 2 mps 744 mmHg 56%
    04:00 +3°C° 0 mm 2 mps 744 mmHg 56%
    05:00 +3°C° 0 mm 2 mps 744 mmHg 55%
    06:00 +3°C° 0 mm 2 mps 744 mmHg 55%
    07:00 +3°C° 0 mm 2 mps 745 mmHg 54%
    08:00 +3°C° 0 mm 2 mps 745 mmHg 53%
    09:00 +4°C° 0 mm 2 mps 745 mmHg 51%
    10:00 +6°C° 0 mm 2 mps 745 mmHg 49%
    11:00 +7°C° 0 mm 2 mps 745 mmHg 47%
    12:00 +8°C° 0 mm 2 mps 745 mmHg 45%
    13:00 +8°C° 0 mm 2 mps 744 mmHg 44%
    14:00 +9°C° 0 mm 2 mps 744 mmHg 43%
    15:00 +8°C° 0 mm 2 mps 744 mmHg 45%
    16:00 +9°C° 0 mm 1 mps 745 mmHg 48%
    17:00 +8°C° 0 mm 1 mps 745 mmHg 50%
    18:00 +7°C° 0 mm 1 mps 745 mmHg 52%
    19:00 +5°C° 0 mm 2 mps 746 mmHg 54%
    20:00 +5°C° 0 mm 2 mps 746 mmHg 56%
    21:00 +4°C° 0 mm 2 mps 746 mmHg 56%
    22:00 +4°C° 0 mm 2 mps 746 mmHg 56%
    23:00 +4°C° 0 mm 2 mps 746 mmHg 55%

    25 January, Friday

    Time Temperature Precipitation Wind Pressure Humidity
    00:00 +4°C° 0 mm 2 mps 746 mmHg 55%
    01:00 +3°C° 0 mm 2 mps 746 mmHg 54%
    02:00 +3°C° 0 mm 2 mps 746 mmHg 53%
    03:00 +3°C° 0 mm 2 mps 746 mmHg 53%
    04:00 +2°C° 0 mm 3 mps 745 mmHg 54%
    05:00 +2°C° 0 mm 3 mps 745 mmHg 54%
    06:00 +2°C° 0 mm 3 mps 745 mmHg 54%
    07:00 +2°C° 0 mm 3 mps 745 mmHg 54%
    08:00 0°C° 0 mm 4 mps 745 mmHg 54%
    09:00 +2°C° 0 mm 5 mps 745 mmHg 50%
    10:00 +3°C° 0 mm 6 mps 744 mmHg 45%
    11:00 +5°C° 0 mm 7 mps 744 mmHg 41%
    12:00 +5°C° 0 mm 7 mps 743 mmHg 40%
    13:00 +6°C° 0 mm 7 mps 742 mmHg 38%
    14:00 +6°C° 0 mm 7 mps 742 mmHg 37%
    15:00 +7°C° 0 mm 6 mps 742 mmHg 39%
    16:00 +5°C° 0 mm 6 mps 741 mmHg 41%
    17:00 +5°C° 0 mm 5 mps 741 mmHg 42%
    18:00 +5°C° 0 mm 5 mps 742 mmHg 44%
    19:00 +3°C° 0 mm 5 mps 742 mmHg 45%
    20:00 +3°C° 0 mm 4 mps 742 mmHg 47%
    21:00 +3°C° 0 mm 4 mps 742 mmHg 46%
    22:00 +3°C° 0 mm 4 mps 742 mmHg 44%
    23:00 +3°C° 0 mm 4 mps 741 mmHg 43%
    Show more